Location: Bannatyne
(13.0833°N, 59.5333°W)
Time: 03:29:20
(UTC+00:00)

Vanguard 3 - Pass Details

Date: 29 January 2020
Orbit: 508 x 3263 km, 33.3° (Epoch: 17 February)

Event Time Altitude Azimuth Distance (km) Brightness Sun altitude
Rises 14:55:25 0° 192° (SSW) 4,333 11.2 53.8°
Reaches altitude 10° 14:59:08 10° 174° (S) 3,795 11.3 54.2°
Maximum altitude 15:06:09 20° 132° (SE) 3,814 11.5 55.1°
Drops below altitude 10° 15:15:37 10° 93° (E) 5,380 11.7 56.1°
Sets 15:22:28 0° 79° (ENE) 6,831 11.9 56.7°
